Grand Etang, Nova Scotia

11:19 AM ADT on October 23, 2017 (GMT -0300)
Grand Etang

Weather History for CWZQ - December, 2013

Change the Weather History Date:

Tuesday, December 31, 2013

  Actual Average Record
Temperature  
Mean Temperature -8 °F -  
Max Temperature 20 °F - - ()
Min Temperature -37 °F - - ()
Degree Days  
Heating Degree Days 74    
Moisture  
Dew Point 10 °F    
Average Humidity 75    
Maximum Humidity 91    
Minimum Humidity 47    
Precipitation  
Precipitation 0.00 in - - ()
Sea Level Pressure  
Sea Level Pressure 29.95 in    
Wind  
Wind Speed 19 mph ()    
Max Wind Speed 32 mph    
Max Gust Speed 39 mph    
Visibility 2.5 miles    
Events      
T = Trace of Precipitation, MM = Missing Value Source: Averaged Metar Reports

Daily Weather History Graph

Daily Weather History Graph

Search for Another Location

Airport or City:

Trip Planner

Search our weather history database for the weather conditions in past years. The results will help you decide how hot, cold, wet, or windy it might be!

Date:

Astronomy

Dec. 31, 2013 Rise Set
Actual Time 7:48 AM AST 4:26 PM AST
Civil Twilight 7:13 AM AST 5:01 PM AST
Nautical Twilight 6:35 AM AST 5:39 PM AST
Astronomical Twilight 5:58 AM AST 6:16 PM AST
Moon 6:33 AM AST (12/31) 4:00 PM AST (12/31)
Length of Visible Light 9h 48m
Length of Day
8h 38m
Waning Crescent, 1% of the Moon is Illuminated
Dec 31
Waning Crescent
Jan 1
New
Jan 7
First Quarter
Jan 16
Full
Jan 24
Last Quarter

Hourly Weather History & Observations

Time (AST) Temp. Windchill Dew Point Humidity Pressure Visibility Wind Dir Wind Speed Gust Speed Precip Events Conditions
12:00 AM 22.6 °F 4.4 °F 18.0 °F 82% 29.81 in - West 32.2 mph 39.1 mph N/A   Unknown
12:20 AM 21.7 °F 3.7 °F 14.9 °F 75% - - West 29.9 mph 38.0 mph N/A   Unknown
12:40 AM 21.6 °F 3.7 °F 16.2 °F 80% - - West 28.8 mph 36.8 mph N/A   Unknown
1:00 AM 21.4 °F 4.1 °F 17.2 °F 84% 29.84 in - West 26.5 mph 34.5 mph N/A   Unknown
1:20 AM 21.4 °F 3.8 °F 16.5 °F 82% - - West 27.6 mph 33.4 mph N/A   Unknown
1:40 AM 21.0 °F 3.3 °F 16.0 °F 81% - - West 27.6 mph 34.5 mph N/A   Unknown
2:00 AM -36 °F - -44 °F 47% 30.12 in 4 mi WNW 4.6 mph - -   Light Haze
2:00 AM 21.0 °F 3.6 °F 15.8 °F 80% 29.86 in - West 26.5 mph 34.5 mph N/A   Unknown
2:20 AM 20.7 °F 3.5 °F 14.9 °F 78% - - West 25.3 mph - N/A   Unknown
2:40 AM 20.7 °F 3.5 °F 14.4 °F 77% - - West 25.3 mph 31.1 mph N/A   Unknown
3:00 AM 20.7 °F 3.5 °F 14.7 °F 78% 29.89 in - West 25.3 mph 31.1 mph N/A   Unknown
3:20 AM 20.8 °F 4.0 °F 18.5 °F 91% - - West 24.2 mph 31.1 mph N/A   Unknown
3:40 AM 20.8 °F 3.7 °F 15.8 °F 81% - - West 25.3 mph 32.2 mph N/A   Unknown
4:00 AM 20.1 °F 3.1 °F 14.9 °F 80% 29.90 in - West 24.2 mph 29.9 mph N/A   Unknown
4:20 AM 20.7 °F 3.5 °F 14.4 °F 77% - - West 25.3 mph 32.2 mph N/A   Unknown
4:40 AM 20.3 °F 4.0 °F 12.6 °F 72% - - West 21.9 mph 29.9 mph N/A   Unknown
5:00 AM 20.1 °F 3.8 °F 14.9 °F 80% 29.91 in - West 21.9 mph 29.9 mph N/A   Unknown
5:20 AM 20.5 °F 4.6 °F 14.9 °F 79% - - West 20.7 mph 28.8 mph N/A   Unknown
5:40 AM 19.9 °F 3.5 °F 13.5 °F 76% - - West 21.9 mph 28.8 mph N/A   Unknown
6:00 AM 19.9 °F 4.3 °F 14.5 °F 80% 29.93 in - West 19.6 mph 26.5 mph N/A   Unknown
6:20 AM 19.9 °F 3.5 °F 14.4 °F 79% - - West 21.9 mph - N/A   Unknown
6:40 AM 19.6 °F 2.7 °F 14.9 °F 82% - - West 23.0 mph 28.8 mph N/A   Unknown
7:00 AM 19.4 °F 3.2 °F 15.4 °F 85% 29.96 in - West 20.7 mph 27.6 mph N/A   Unknown
7:20 AM 19.2 °F 3.0 °F 14.5 °F 82% - - West 20.7 mph - N/A   Unknown
7:40 AM 19.4 °F 3.6 °F 13.8 °F 79% - - West 19.6 mph 25.3 mph N/A   Unknown
8:00 AM -36 °F - -43 °F 48% 30.14 in 2 mi West 6.9 mph - -   Light Haze
8:00 AM 19.4 °F 4.5 °F 14.9 °F 83% 29.97 in - West 17.3 mph - N/A   Unknown
8:20 AM 19.8 °F 4.5 °F 15.4 °F 83% - - West 18.4 mph - N/A   Unknown
8:40 AM 19.6 °F 4.3 °F 13.5 °F 77% - - West 18.4 mph - N/A   Unknown
9:00 AM 19.8 °F 5.0 °F 13.6 °F 77% 29.99 in - West 17.3 mph 23.0 mph N/A   Unknown
9:20 AM 19.9 °F 4.8 °F 13.3 °F 75% - - West 18.4 mph 25.3 mph N/A   Unknown
9:40 AM 19.9 °F 4.8 °F 13.5 °F 76% - - West 18.4 mph 24.2 mph N/A   Unknown
10:00 AM 19.4 °F 5.0 °F 13.5 °F 78% 29.99 in - West 16.1 mph 24.2 mph N/A   Unknown
10:20 AM 19.6 °F 4.7 °F 14.7 °F 81% - - West 17.3 mph 23.0 mph N/A   Unknown
10:40 AM 19.9 °F 5.7 °F 14.5 °F 80% - - WNW 16.1 mph - N/A   Unknown
11:00 AM 19.9 °F 6.7 °F 12.2 °F 72% 29.97 in - West 13.8 mph - N/A   Unknown
11:20 AM 20.3 °F 7.7 °F 12.0 °F 70% - - West 12.7 mph - N/A   Unknown
11:40 AM 19.9 °F 6.2 °F 10.2 °F 66% - - West 15.0 mph - N/A   Unknown
12:00 PM 20.1 °F 6.9 °F 13.8 °F 77% 29.96 in - West 13.8 mph - N/A   Unknown
12:20 PM 19.9 °F 6.2 °F 13.8 °F 77% - - West 15.0 mph - N/A   Unknown
12:40 PM 20.1 °F 8.8 °F 12.9 °F 74% - - West 10.4 mph - N/A   Unknown
1:00 PM 19.4 °F 7.2 °F 12.4 °F 74% 29.93 in - WNW 11.5 mph - N/A   Unknown
1:20 PM 20.3 °F 8.3 °F 10.9 °F 67% - - West 11.5 mph - N/A   Unknown
1:40 PM 20.1 °F 7.5 °F 12.7 °F 73% - - West 12.7 mph - N/A   Unknown
2:00 PM -37 °F - -45 °F 47% 30.15 in 2 mi West 9.2 mph - -   Light Haze
2:00 PM 19.8 °F 8.3 °F 12.6 °F 74% 29.91 in - West 10.4 mph 17.3 mph N/A   Unknown
2:20 PM 19.4 °F 7.2 °F 12.6 °F 75% - - West 11.5 mph - N/A   Unknown
2:40 PM 19.9 °F 7.9 °F 12.2 °F 72% - - West 11.5 mph 18.4 mph N/A   Unknown
3:00 PM 19.4 °F 7.2 °F 10.2 °F 68% 29.92 in - West 11.5 mph 17.3 mph N/A   Unknown
3:20 PM 19.2 °F 7.7 °F 10.9 °F 70% - - WNW 10.4 mph - N/A   Unknown
3:40 PM 19.0 °F 6.8 °F 10.9 °F 71% - - West 11.5 mph 18.4 mph N/A   Unknown
4:00 PM 19.2 °F 6.4 °F 10.9 °F 70% 29.90 in - WNW 12.7 mph 18.4 mph N/A   Unknown
4:20 PM 19.0 °F 9.0 °F 10.8 °F 70% - - NW 8.1 mph - N/A   Unknown
4:40 PM 19.2 °F 7.7 °F 11.1 °F 71% - - West 10.4 mph - N/A   Unknown
5:00 PM 19.0 °F 7.5 °F 10.0 °F 68% 29.92 in - WNW 10.4 mph - N/A   Unknown
5:20 PM 19.2 °F 8.4 °F 10.4 °F 69% - - West 9.2 mph - N/A   Unknown
5:40 PM 19.0 °F 9.0 °F 12.0 °F 74% - - West 8.1 mph - N/A   Unknown
6:00 PM 19.0 °F 6.8 °F 10.2 °F 69% 29.92 in - West 11.5 mph 17.3 mph N/A   Unknown
6:20 PM 19.0 °F 7.5 °F 11.5 °F 72% - - West 10.4 mph - N/A   Unknown
6:40 PM 19.0 °F 5.6 °F 13.8 °F 80% - - West 13.8 mph - N/A   Unknown
7:00 PM 18.9 °F 4.3 °F 15.1 °F 85% 29.91 in - West 16.1 mph - N/A   Unknown
7:20 PM 18.9 °F 4.3 °F 13.5 °F 79% - - West 16.1 mph - N/A   Unknown
7:40 PM 19.2 °F 4.7 °F 12.9 °F 76% - - West 16.1 mph - N/A   Unknown
8:00 PM -36 °F - -43 °F 49% 30.18 in 2 mi WSW 11.5 mph - -   Light Haze
8:00 PM 18.7 °F 4.6 °F 10.4 °F 70% 29.92 in - West 15.0 mph - N/A   Unknown
8:20 PM 18.7 °F 5.7 °F 11.1 °F 72% - - West 12.7 mph 18.4 mph N/A   Unknown
8:40 PM 18.7 °F 7.0 °F 11.7 °F 74% - - WSW 10.4 mph - N/A   Unknown
9:00 PM 18.3 °F 5.9 °F 10.0 °F 70% 29.90 in - WSW 11.5 mph - N/A   Unknown
9:20 PM 18.5 °F 6.1 °F 12.4 °F 77% - - West 11.5 mph - N/A   Unknown
9:40 PM 18.1 °F 4.4 °F 13.3 °F 81% - - West 13.8 mph - N/A   Unknown
10:00 PM 17.8 °F 4.0 °F 14.9 °F 88% 29.88 in - WSW 13.8 mph 21.9 mph N/A   Unknown
10:20 PM 20.3 °F 8.3 °F 10.8 °F 67% - - West 11.5 mph - N/A   Unknown
10:40 PM 18.9 °F 6.5 °F 10.9 °F 71% - - West 11.5 mph - N/A   Unknown
11:00 PM 19.0 °F 2.7 °F 14.9 °F 84% 29.87 in - West 20.7 mph - N/A   Unknown
11:20 PM 18.9 °F 1.7 °F 16.5 °F 91% - - West 23.0 mph 28.8 mph N/A   Unknown
11:40 PM 18.9 °F 1.7 °F 15.1 °F 85% - - West 23.0 mph 29.9 mph N/A   Unknown